Погода в Амране

Йемен     15°39′36″N   43°56′44″E
темп.,
°C
ветер,
м/с
пор.,
м/с
влажн.,
%
обл.,
%
осадки,
мм/ч
давл.,
гПа
погр.,
м
28 февраля, вс
вс2800:00+15в12560 0.0 1015110
03:00+13в11610 0.0 101428
06:00+12ююв11620 0.0 101522
09:00+16ююз23400 0.0 1017544
12:00+20з44220 0.0 10141785
15:00+20зсз64370 0.0 10111633
18:00+16зсз33610 0.1 1013471
21:00+15юв01660 0.3 1015203
1 марта, пн
пн100:00+15ююз01540 0.0 101524
03:00+13з22710 0.1 101354
06:00+12зюз127661 0.0 101526
09:00+16ююз222880 0.0 1015442
12:00+20зюз332192 0.0 10141623
15:00+20з443765 0.0 10101476
18:00+16зсз33700 0.0 1013456
21:00+15з12714 0.3 1015185
2 марта, вт
вт200:00+15ююз11541 0.0 101536
03:00+14сз116018 0.0 101423
06:00+13всв116884 0.0 101523
09:00+16в124781 0.0 1017695
12:00+20юз02333 0.0 10152188
15:00+18сз445630 0.4 1012967
18:00+17ссз2361100 0.5 1014850
21:00+17всв354283 0.6 1016546
3 марта, ср
ср300:00+15в22510 0.0 1015108
03:00+14ю01530 0.0 101423
06:00+13вюв11530 0.0 101523
09:00+17вюв34350 0.0 1016856
12:00+20юв33240 0.0 10142297
15:00+20сз55410 0.1 10121787
18:00+17ссз346434 0.4 10131047
21:00+17всв463421 0.6 10151006
4 марта, чт
чт400:00+16вюв36280 0.0 1015173
03:00+14юз11400 0.0 101323
06:00+12з00460 0.0 101423
09:00+17вюв23280 0.0 1015871
12:00+20в12240 0.0 10141941
15:00+21ссз44370 0.1 10111717
18:00+17ссз346320 0.3 10131063
21:00+17в573116 0.3 1015976